TimeMDT,TemperatureF,Dew PointF,Humidity,Sea Level PressureIn,VisibilityMPH,Wind Direction,Wind SpeedMPH,Gust SpeedMPH,PrecipitationIn,Events,Conditions,WindDirDegrees,DateUTC
12:53 AM,36.0,21.9,57,29.98,10.0,East,8.1,-,N/A,,Clear,90,2014-04-01 06:53:00
1:53 AM,33.1,21.0,61,30.00,10.0,SSE,5.8,-,N/A,,Clear,150,2014-04-01 07:53:00
2:53 AM,33.1,19.9,59,29.99,10.0,SE,4.6,-,N/A,,Clear,140,2014-04-01 08:53:00
3:53 AM,30.9,19.9,64,29.99,10.0,Calm,Calm,-,N/A,,Clear,0,2014-04-01 09:53:00
4:53 AM,27.0,18.0,69,30.01,10.0,SW,3.5,-,N/A,,Clear,220,2014-04-01 10:53:00
5:53 AM,28.0,19.0,69,29.99,10.0,South,9.2,-,N/A,,Clear,170,2014-04-01 11:53:00
6:53 AM,28.0,19.0,69,29.99,10.0,SSE,9.2,-,N/A,,Clear,150,2014-04-01 12:53:00
7:53 AM,34.0,21.0,59,29.99,10.0,SSE,11.5,-,N/A,,Clear,150,2014-04-01 13:53:00
8:53 AM,39.9,21.9,49,29.96,10.0,SSE,12.7,21.9,N/A,,Clear,150,2014-04-01 14:53:00
9:53 AM,44.1,21.0,40,29.93,8.0,SSE,21.9,29.9,N/A,,Clear,150,2014-04-01 15:53:00
10:53 AM,48.9,19.9,32,29.88,7.0,SSE,25.3,31.1,N/A,,Scattered Clouds,160,2014-04-01 16:53:00
11:42 AM,54.0,21.0,28,29.85,4.0,South,27.6,35.7,N/A,,Haze,170,2014-04-01 17:42:00
11:53 AM,55.0,21.0,27,29.81,4.0,South,23.0,34.5,N/A,,Haze,170,2014-04-01 17:53:00
12:53 PM,60.1,19.9,21,29.74,4.0,South,23.0,34.5,N/A,,Haze,180,2014-04-01 18:53:00
1:43 PM,63.0,19.9,19,29.73,2.5,SSE,19.6,-,N/A,,Haze,160,2014-04-01 19:43:00
1:51 PM,64.4,19.4,18,29.72,4.0,SSE,21.9,28.8,N/A,,Haze,160,2014-04-01 19:51:00
1:53 PM,64.9,19.9,18,29.67,4.0,SSE,21.9,28.8,N/A,,Haze,160,2014-04-01 19:53:00
2:53 PM,68.0,19.0,15,29.61,6.0,South,24.2,32.2,N/A,,Haze,170,2014-04-01 20:53:00
3:53 PM,70.0,19.0,14,29.56,6.0,SE,23.0,32.2,N/A,,Haze,130,2014-04-01 21:53:00
4:11 PM,71.1,18.0,13,29.60,2.5,South,24.2,35.7,N/A,,Haze,180,2014-04-01 22:11:00
4:20 PM,71.1,17.1,13,29.59,4.0,South,24.2,36.8,N/A,,Haze,180,2014-04-01 22:20:00
4:53 PM,71.1,18.0,13,29.53,4.0,South,29.9,40.3,N/A,,Haze,180,2014-04-01 22:53:00
5:39 PM,69.1,19.0,15,29.58,2.5,South,26.5,36.8,N/A,,Haze,170,2014-04-01 23:39:00
5:53 PM,68.0,19.0,15,29.54,2.5,SSE,28.8,39.1,N/A,,Haze,160,2014-04-01 23:53:00
6:23 PM,66.0,19.0,17,29.58,2.0,SSE,25.3,35.7,N/A,,Haze,160,2014-04-02 00:23:00
6:33 PM,66.0,19.0,17,29.59,4.0,SSE,24.2,34.5,N/A,,Haze,150,2014-04-02 00:33:00
6:40 PM,64.9,19.0,17,29.58,5.0,SE,25.3,34.5,N/A,,Haze,140,2014-04-02 00:40:00
6:53 PM,64.0,19.0,18,29.56,6.0,East,18.4,26.5,N/A,,Haze,100,2014-04-02 00:53:00
7:02 PM,60.1,23.0,24,29.60,6.0,East,26.5,32.2,N/A,,Haze,80,2014-04-02 01:02:00
7:53 PM,54.0,27.0,35,29.59,8.0,East,27.6,40.3,N/A,,Clear,100,2014-04-02 01:53:00
8:53 PM,53.1,27.0,37,29.62,7.0,ESE,31.1,38.0,N/A,,Clear,110,2014-04-02 02:53:00
9:53 PM,48.0,28.9,48,29.65,8.0,ESE,26.5,34.5,N/A,,Clear,110,2014-04-02 03:53:00
10:53 PM,44.1,28.9,55,29.64,8.0,East,23.0,28.8,N/A,,Clear,100,2014-04-02 04:53:00
11:53 PM,42.1,28.9,60,29.64,8.0,East,19.6,29.9,N/A,,Clear,100,2014-04-02 05:53:00